This is the latest recevied weather packets stored in our database for station/object KI5NXU. If no packets are shown the sender has not sent any weather packets the latest 10 day(s).
| Time | Temp. | Humidity | Pressure | Rain* | Wind** | Luminosity | Snow |
|---|---|---|---|---|---|---|---|
| 1787842913 | 31.11° C | 65% | 1017.1 hPa | 0 mm | - | 379 W/m² | - |
| 1787842612 | 31.11° C | 65% | 1017 hPa | 0 mm | - | 360 W/m² | - |
| 1787842307 | 30.56° C | 66% | 1017 hPa | 0 mm | - | 333 W/m² | - |
| 1787842007 | 30.56° C | 65% | 1016.9 hPa | 0 mm | - | 294 W/m² | - |
| 1787841703 | 30.56° C | 67% | 1016.8 hPa | 0 mm | - | 295 W/m² | - |
| 1787841402 | 30.56° C | 68% | 1016.8 hPa | 0 mm | - | 262 W/m² | - |
| 1787841097 | 30° C | 70% | 1016.6 hPa | 0 mm | - | 257 W/m² | - |
| 1787840792 | 30° C | 69% | 1016.9 hPa | 0 mm | - | 134 W/m² | - |
| 1787840487 | 30.56° C | 70% | 1016.7 hPa | 0 mm | - | 99 W/m² | - |
| 1787840183 | 30.56° C | 69% | 1016.6 hPa | 0 mm | - | 209 W/m² | - |
| 1787839882 | 30° C | 67% | 1016.2 hPa | 0 mm | - | 213 W/m² | - |
| 1787839578 | 30.56° C | 68% | 1016.3 hPa | 0 mm | - | 196 W/m² | - |
| 1787839277 | 30.56° C | 65% | 1016.2 hPa | 0 mm | - | 173 W/m² | - |
| 1787838972 | 30.56° C | 63% | 1016.3 hPa | 0 mm | - | 168 W/m² | - |
| 1787838671 | 30° C | 64% | 1016 hPa | 0 mm | - | 146 W/m² | - |
| 1787838370 | 30° C | 64% | 1016.2 hPa | 0 mm | - | 137 W/m² | - |
| 1787838063 | 28.89° C | 65% | 1016.4 hPa | 0 mm | - | 127 W/m² | - |
| 1787837763 | 28.89° C | 67% | 1016.1 hPa | 0 mm | - | 118 W/m² | - |
| 1787837458 | 28.33° C | 68% | 1016.3 hPa | 0 mm | - | 105 W/m² | - |
| 1787837153 | 27.78° C | 69% | 1016.3 hPa | 0 mm | - | 78 W/m² | - |
| 1787836852 | 27.78° C | 69% | 1015.9 hPa | 0 mm | - | 70 W/m² | - |
| 1787836548 | 27.22° C | 70% | 1016.1 hPa | 0 mm | - | 64 W/m² | - |
| 1787836242 | 26.67° C | 72% | 1016.2 hPa | 0 mm | - | 52 W/m² | - |
| 1787835938 | 26.67° C | 72% | 1016.3 hPa | 0 mm | - | 45 W/m² | - |
| 1787835638 | 26.11° C | 73% | 1016.2 hPa | 0 mm | - | 42 W/m² | - |
* Rain latest hour (hover to see other rain measurements)
** Current wind speed in m/s (hover to see current wind gust speed)